Regional Weather Roundup
Issued by NWS

Home | Current Version | Previous Version | Text Only | Print | Product List | Glossary On
Versions: 1 2 3 4 5 6 7 8 9 10 11 12 13 14 15 16 17 18 19 20 21 22 23 24 25 26 27 28 29 30 31 32 33 34 35 36 37 38 39 40 41 42 43 44 45 46 47 48 49 50
000
ASUS43 KMKX 050011
RWRWI

WISCONSIN REGIONAL WEATHER ROUNDUP
NATIONAL WEATHER SERVICE MILWAUKEE/SULLIVAN WI
700 PM CDT TUE AUG 04 2015

NOTE: "FAIR" INDICATES FEW OR NO CLOUDS BELOW 12,000 FEET WITH NO
SIGNIFICANT WEATHER AND/OR OBSTRUCTIONS TO VISIBILITY.

WIZ001-002-006>008-014>016-023>028-050100-
NORTHWEST WISCONSIN

CITY           SKY/WX    TMP DP  RH WIND       PRES   REMARKS
SUPERIOR ARPT  PTSUNNY   64  54  68 NE6       29.99S
6HR MIN TEMP:  64; 6HR MAX TEMP:  75;

ASHLAND        SUNNY     67  54  63 E7        30.01R
6HR MIN TEMP:  67; 6HR MAX TEMP:  75;

HAYWARD        PTSUNNY   72  52  49 NE12      29.99R
6HR MIN TEMP:  71; 6HR MAX TEMP:  77;

SIREN          SUNNY     74  53  48 N3        29.98S
6HR MIN TEMP:  73; 6HR MAX TEMP:  77;

CUMBERLAND     MOSUNNY   70  52  52 N6        29.98S
RICE LAKE      PTSUNNY   73  55  52 NW3       29.99S
6HR MIN TEMP:  73; 6HR MAX TEMP:  77;

CHETEK         PTSUNNY   75  55  49 CALM      29.97S
6HR MIN TEMP:  73; 6HR MAX TEMP:  77;

LADYSMITH      CLOUDY    72  56  56 NW3       30.00S
6HR MIN TEMP:  72; 6HR MAX TEMP:  75;

EAU CLAIRE     SUNNY     75  55  49 NW5       29.96S
6HR MIN TEMP:  75; 6HR MAX TEMP:  80;

MENOMONIE      SUNNY     78  51  38 W6        29.97R
6HR MIN TEMP:  77; 6HR MAX TEMP:  81;

NEW RICHMOND   MOSUNNY   73  56  55 NW6       29.98S
6HR MIN TEMP:  73; 6HR MAX TEMP:  80;

OSCEOLA        SUNNY     76  56  49 N5        30.00S
6HR MIN TEMP:  75; 6HR MAX TEMP:  80;

$$

WIZ003>005-009-010-017-018-050100-
NORTH CENTRAL WISCONSIN

CITY           SKY/WX    TMP DP  RH WIND       PRES   REMARKS
MANITOWISH WTR PTSUNNY   64  51  62 N7        30.01R
6HR MIN TEMP:  64; 6HR MAX TEMP:  69;

ARBOR VITAE    PTSUNNY   65  51  60 N6        30.00R
6HR MIN TEMP:  65; 6HR MAX TEMP:  72;

WOODRUFF       PTSUNNY   65  51  60 N6        30.00R
6HR MIN TEMP:  65; 6HR MAX TEMP:  72;

RHINELANDER    PTSUNNY   67  51  56 N3        30.00R
6HR MIN TEMP:  67; 6HR MAX TEMP:  72;

EAGLE RIVER    CLOUDY    65  47  51 N7        30.00R
6HR MIN TEMP:  65; 6HR MAX TEMP:  71;

LAND O LAKES   MOSUNNY   64  49  59 N7        30.01S
6HR MIN TEMP:  64; 6HR MAX TEMP:  70;

PHILLIPS       CLOUDY    67  54  63 CALM      29.99S
6HR MIN TEMP:  67; 6HR MAX TEMP:  72;

TOMAHAWK       PTSUNNY   67  56  67 CALM      30.00R
6HR MIN TEMP:  67; 6HR MAX TEMP:  73;

MEDFORD        PTSUNNY   70  54  57 NW3       29.98F
6HR MIN TEMP:  69; 6HR MAX TEMP:  73;

MERRILL        NOT AVBL
$$

WIZ029-030-035-036-043>047-050100-
CENTRAL WISCONSIN

CITY           SKY/WX    TMP DP  RH WIND       PRES   REMARKS
WAUSAU         PTSUNNY   74  51  44 NW7       29.96S
6HR MIN TEMP:  72; 6HR MAX TEMP:  77;

MOSINEE        MOSUNNY   72  54  53 NW9       29.99S
MARSHFIELD     SUNNY     74  51  44 N10       29.97F
6HR MIN TEMP:  72; 6HR MAX TEMP:  78;

STEVENS POINT  SUNNY     72  51  48 NW6       29.97F
WAUPACA        SUNNY     77  50  39 NW7       29.96S
6HR MIN TEMP:  76; 6HR MAX TEMP:  80;

WAUTOMA        SUNNY     77  52  41 N9        29.96S
6HR MIN TEMP:  77; 6HR MAX TEMP:  81;

WISC RAPIDS    MOSUNNY   76  49  38 NW8       29.98S
6HR MIN TEMP:  74; 6HR MAX TEMP:  78;

CAMP DOUGLAS   MOSUNNY   73  60  62 VRB5      29.96S
6HR MIN TEMP:  73; 6HR MAX TEMP:  80;

$$

WIZ011>013-019>022-031-037>040-048>050-050100-
NORTHEAST WISCONSIN

CITY           SKY/WX    TMP DP  RH WIND       PRES   REMARKS
ANTIGO         CLOUDY    67  53  61 N5        29.99R
SHAWANO        CLOUDY    74  53  47 N6        29.96S
6HR MIN TEMP:  74; 6HR MAX TEMP:  79;

OCONTO         PTSUNNY   66  58  74 E5        29.94S
6HR MIN TEMP:  66; 6HR MAX TEMP:  78;

STURGEON BAY   CLOUDY    66  55  68 E6        29.97F
6HR MIN TEMP:  66; 6HR MAX TEMP:  73;

GREEN BAY      MOSUNNY   75  57  53 NW5       29.94S
6HR MIN TEMP:  73; 6HR MAX TEMP:  79;

MANITOWOC      PTSUNNY   72  59  63 MISG      29.94S
6HR MIN TEMP:  72; 6HR MAX TEMP:  80;

APPLETON       MOSUNNY   73  50  43 N10       29.96S
CLINTONVILLE   PTSUNNY   73  50  43 NW7       29.95S
OSHKOSH        SUNNY     75  53  46 NW10      29.94F
6HR MIN TEMP:  74; 6HR MAX TEMP:  78;

$$

WIZ032>034-041-042-053>061-050100-
SOUTHWEST WISCONSIN

CITY           SKY/WX    TMP DP  RH WIND       PRES   REMARKS
LA CROSSE      MOSUNNY   79  52  38 W8        29.96S
6HR MIN TEMP:  78; 6HR MAX TEMP:  83;

SPARTA         SUNNY     77  48  35 NW6       29.98R
6HR MIN TEMP:  76; 6HR MAX TEMP:  80;

VIROQUA        SUNNY     74  55  52 N3        30.00R
6HR MIN TEMP:  73; 6HR MAX TEMP:  77;

BOSCOBEL       MOSUNNY   79  54  41 N5        29.97R
6HR MIN TEMP:  79; 6HR MAX TEMP:  83;

PRAIRIE DU CHI PTSUNNY   77  51  40 N5        29.97R
6HR MIN TEMP:  76; 6HR MAX TEMP:  79;

PLATTEVILLE    PTSUNNY   74  57  55 CALM      29.98S
6HR MIN TEMP:  74; 6HR MAX TEMP:  78;

$$

WIZ056-057-062-063-064-067-068-050100-
SOUTH CENTRAL WISCONSIN

CITY           SKY/WX    TMP DP  RH WIND       PRES   REMARKS
REEDSBURG      SUNNY     76  52  42 W6        29.96S
6HR MIN TEMP:  75; 6HR MAX TEMP:  80;

BARABOO/DELLS  CLOUDY    77  47  34 W8        29.96S
6HR MIN TEMP:  76; 6HR MAX TEMP:  80;

LONE ROCK      MOSUNNY   78  52  40 NW5       29.97S
6HR MIN TEMP:  78; 6HR MAX TEMP:  81;

MINERAL POINT  MOSUNNY   75  50  41 CALM      29.98R
MADISON        MOSUNNY   77  52  41 NW7       29.96S
6HR MIN TEMP:  75; 6HR MAX TEMP:  79;

MIDDLETON      MOSUNNY   76  52  42 CALM      29.97S
6HR MIN TEMP:  76; 6HR MAX TEMP:  82;

WATERTOWN      SUNNY     75  55  49 NW6       29.95S
6HR MIN TEMP:  75; 6HR MAX TEMP:  79;

MONROE         PTSUNNY   73  55  53 NW5       29.97S
JANESVILLE     MOSUNNY   77  50  38 NW6       29.95F
$$

WIZ051-052-058>065-066-070>072-050100-
SOUTHEAST WISCONSIN

CITY           SKY/WX    TMP DP  RH WIND       PRES   REMARKS
MILWAUKEE      PTSUNNY   72  57  59 SE9       29.95S
6HR MIN TEMP:  72; 6HR MAX TEMP:  80;

WAUKESHA       MOSUNNY   73  50  43 NW7       29.96F
MILWAUKEE/TIMM SUNNY     77  46  33 NW8       29.95S
RACINE         PTSUNNY   73  57  57 SE8       29.97S
6HR MIN TEMP:  72; 6HR MAX TEMP:  80;

BURLINGTON     MOSUNNY   74  50  42 NW3       29.95F
6HR MIN TEMP:  74; 6HR MAX TEMP:  79;

KENOSHA        MOSUNNY   74  57  55 E6        29.96S
6HR MIN TEMP:  74; 6HR MAX TEMP:  79;

FOND DU LAC    SUNNY     76  53  44 N9        29.95S
6HR MIN TEMP:  74; 6HR MAX TEMP:  80;

SHEBOYGAN      PTSUNNY   76  55  48 N9        29.94S
6HR MIN TEMP:  73; 6HR MAX TEMP:  78;

WEST BEND      SUNNY     73  50  43 NW6       29.95S
JUNEAU         SUNNY     74  55  49 NW3       29.96S
6HR MIN TEMP:  73; 6HR MAX TEMP:  76;

$$

LSZ147-162-050100-
LAKE SUPERIOR

STATION/POSITION TIME  TEMP    WIND        PRES    WAVE
                       AIR SEA DIR/SP/G            HT/PER
                 (UTC) (F)     (DEG/KT/KT) (MB)    (FT/S)
W MID LAKE BUOY  2350   59 58  170/  4/  4 1016.2R   0
DEVILS ISLAND    0000   63      80/  2/  3 1016.3R
PORT WING        2300   70      50/  9/ 11 1015.9R
SAXON HARBOR     2340   66      40/  5/  7 1015.9R
$$

LMZ867-665-643>646-050100-
LAKE MICHIGAN

STATION/POSITION TIME  TEMP    WIND        PRES    WAVE
                       AIR SEA DIR/SP/G            HT/PER
                 (UTC) (F)     (DEG/KT/KT) (MB)    (FT/S)
CHAMBERS ISLAND  2300   67      40/  7/  8 1014.2R



USA.gov is the U.S. government's official web portal to all federal, state and local government web resources and services.